Home   Weather   Stillwater   Past weeks

Flag for USA Past Weather in Stillwater, Minnesota, USA — Yesterday and Last 2 Weeks

Now
33 °F

Light snow. Fog.


Feels Like: 28 °F
Forecast: 34 / 36 °F
Wind: 6 mph from West

Location: St. Paul Downtown Holman Field

Current Time: Jan 23, 2017 at 8:57:53 am

Latest Report: Jan 23, 2017 at 8:05 am


Visibility: 2 mi

Pressure: 29.82 "Hg

Humidity: 100%

Dew Point: 33 °F

Location of StillwaterLocation

Past Weather in Stillwater — Graph

°F

Stillwater Temperature Yesterday

Maximum temperature yesterday: 40 °F (at 1:53 pm)
Minimum temperature yesterday: 34 °F (at 12:21 am)
Average temperature yesterday: 36 °F

High & Low Weather Summary for the Past Weeks

 TemperatureHumidityPressure
High40 °F (Jan 18, 12:53 pm)100% (Jan 10, 7:27 am)30.91 "Hg (Jan 10, 7:27 am)
Low-7 °F (Jan 13, 1:53 am)50% (Jan 12, 3:53 pm)29.35 "Hg (Jan 10, 11:37 am)
Average23 °F87%29.97 "Hg
* Reported Jan 8 8:55 am — Jan 23 8:05 am, Stillwater, Weather by CustomWeather, © 2017

Note: Actual official high and low records may vary slightly from our data, if they occured in-between our weather recording intervals... More about our weather records

Advertising

Stillwater Weather History for the Previous 24 Hours

Scroll right to see more
 ConditionsComfort  
Time TempWeatherWind HumidityBarometerVisibility
8:05 am
Mon, Jan 23
33 °FLight snow. Fog.6 mph100%29.82 "Hg2 mi
7:53 am33 °FLight snow. Fog.5 mph100%29.84 "Hg3 mi
6:53 am33 °FLight rain. Fog.5 mph100%29.83 "Hg3 mi
5:53 am34 °FFog.6 mph100%29.83 "Hg3 mi
4:53 am34 °FFog.6 mph100%29.83 "Hg4 mi
3:53 am33 °FFog.5 mph100%29.83 "Hg4 mi
2:53 am34 °FFog.6 mph100%29.84 "Hg5 mi
2:23 am34 °FFog.6 mph100%29.82 "Hg3 mi
1:53 am34 °FFog.3 mph100%29.83 "Hg2 mi
1:25 am34 °FFog.No wind100%29.81 "Hg2 mi
12:53 am34 °FFog.5 mph100%29.81 "Hg3 mi
11:53 pm
Sun, Jan 22
34 °FFog.7 mph100%29.80 "Hg4 mi
10:53 pm35 °FFog.7 mph100%29.81 "Hg4 mi
10:21 pm36 °FFog.7 mph100%29.80 "Hg2 mi
9:53 pm36 °FFog.5 mph100%29.81 "Hg5 mi
8:53 pm36 °FFog.6 mph100%29.80 "Hg6 mi
7:53 pm37 °FFog.9 mph100%29.79 "Hg3 mi
7:01 pm38 °FLow clouds.9 mph97%29.77 "Hg7 mi
5:53 pm38 °FOvercast.7 mph93%29.78 "Hg9 mi
4:53 pm38 °FOvercast.7 mph93%29.75 "Hg7 mi
3:53 pm40 °FOvercast.8 mph89%29.74 "Hg10 mi
3:04 pm40 °FOvercast.7 mph89%29.73 "Hg10 mi
2:53 pm40 °FOvercast.6 mph89%29.74 "Hg10 mi
1:53 pm40 °FOvercast.7 mph89%29.73 "Hg10 mi
12:53 pm39 °FMostly cloudy.8 mph93%29.73 "Hg7 mi
11:53 am39 °FOvercast.7 mph93%29.73 "Hg7 mi
11:12 am38 °FLow clouds.7 mph97%29.73 "Hg7 mi
10:53 am37 °FFog.7 mph100%29.74 "Hg5 mi
9:53 am36 °FLow clouds.3 mph100%29.73 "Hg8 mi
8:53 am35 °FFog.5 mph100%29.71 "Hg2 mi
Weather by CustomWeather, © 2017

See weather overviewHow to use our weather pages